Time,TemperatureF,DewpointF,PressureIn,WindDirection,WindDirectionDegrees,WindSpeedMPH,WindSpeedGustMPH,Humidity,HourlyPrecipIn,Conditions,Clouds,dailyrainin,SoftwareType,DateUTC
2013-01-25 00:01:00,41.0,41.0,30.06,WNW,303,3.0,4.0,100,0.00,,,0.09,,2013-01-25 08:01:00,
2013-01-25 00:11:00,41.0,41.0,30.06,WNW,303,3.0,4.0,100,0.00,,,0.10,,2013-01-25 08:11:00,
2013-01-25 00:21:00,41.0,41.0,30.06,WNW,303,3.0,4.0,100,0.00,,,0.10,,2013-01-25 08:21:00,
2013-01-25 00:31:00,41.0,41.0,30.06,WNW,303,3.0,4.0,100,0.00,,,0.09,,2013-01-25 08:31:00,
2013-01-25 00:41:00,41.0,41.0,30.06,WNW,303,3.0,4.0,100,0.00,,,0.09,,2013-01-25 08:41:00,
2013-01-25 00:52:00,41.0,41.0,30.06,NW,304,3.0,4.0,100,0.00,,,0.09,,2013-01-25 08:52:00,
2013-01-25 01:01:00,41.0,41.0,30.06,WNW,303,3.0,4.0,100,0.00,,,0.10,,2013-01-25 09:01:00,
2013-01-25 01:11:00,41.0,41.0,30.06,WNW,303,3.0,4.0,100,0.00,,,0.10,,2013-01-25 09:11:00,
2013-01-25 01:21:00,42.0,42.0,30.06,WNW,303,3.0,5.0,100,0.00,,,0.10,,2013-01-25 09:21:00,
2013-01-25 01:31:00,42.0,42.0,30.06,NW,304,3.0,4.0,100,0.00,,,0.10,,2013-01-25 09:31:00,
2013-01-25 01:41:00,42.0,42.0,30.06,NW,304,3.0,4.0,100,0.00,,,0.10,,2013-01-25 09:41:00,
2013-01-25 01:52:00,42.0,42.0,30.05,NW,304,3.0,4.0,100,0.00,,,0.11,,2013-01-25 09:52:00,
2013-01-25 02:01:00,42.0,42.0,30.05,NW,304,3.0,4.0,100,0.00,,,0.12,,2013-01-25 10:01:00,
2013-01-25 02:11:00,42.0,42.0,30.05,NW,304,3.0,4.0,100,0.00,,,0.12,,2013-01-25 10:11:00,
2013-01-25 02:21:00,42.0,42.0,30.05,WNW,303,3.0,3.0,100,0.00,,,0.12,,2013-01-25 10:21:00,
2013-01-25 02:31:00,42.0,42.0,30.05,NW,304,3.0,4.0,100,0.00,,,0.14,,2013-01-25 10:31:00,
2013-01-25 02:41:00,42.0,42.0,30.05,NW,304,3.0,4.0,100,0.00,,,0.14,,2013-01-25 10:41:00,
2013-01-25 02:51:00,42.0,42.0,30.06,WNW,303,3.0,4.0,100,0.00,,,0.15,,2013-01-25 10:51:00,
2013-01-25 03:02:00,42.0,42.0,30.06,NW,304,3.0,5.0,100,0.00,,,0.15,,2013-01-25 11:02:00,
2013-01-25 03:11:00,42.0,42.0,30.06,NW,304,3.0,5.0,100,0.00,,,0.15,,2013-01-25 11:11:00,
2013-01-25 03:22:00,42.0,42.0,30.06,WNW,303,3.0,3.0,100,0.00,,,0.16,,2013-01-25 11:22:00,
2013-01-25 03:32:00,42.0,42.0,30.05,NW,304,3.0,3.0,100,0.00,,,0.17,,2013-01-25 11:32:00,
2013-01-25 03:42:00,42.0,42.0,30.05,NW,304,3.0,3.0,100,0.00,,,0.17,,2013-01-25 11:42:00,
2013-01-25 03:52:00,42.0,42.0,30.05,NW,304,3.0,3.0,100,0.00,,,0.17,,2013-01-25 11:52:00,
2013-01-25 04:01:00,42.0,42.0,30.05,WNW,303,4.0,5.0,100,0.00,,,0.17,,2013-01-25 12:01:00,
2013-01-25 04:11:00,42.0,42.0,30.05,WNW,303,4.0,5.0,100,0.00,,,0.17,,2013-01-25 12:11:00,
2013-01-25 04:22:00,42.0,42.0,30.05,WNW,303,4.0,5.0,100,0.00,,,0.17,,2013-01-25 12:22:00,
2013-01-25 04:32:00,42.0,42.0,30.05,WNW,303,3.0,3.0,100,0.00,,,0.19,,2013-01-25 12:32:00,
2013-01-25 04:41:00,42.0,42.0,30.05,WNW,303,3.0,3.0,100,0.00,,,0.19,,2013-01-25 12:41:00,
2013-01-25 04:53:00,42.0,42.0,30.05,NW,304,3.0,4.0,100,0.00,,,0.19,,2013-01-25 12:53:00,
2013-01-25 05:02:00,42.0,42.0,30.05,NW,304,2.0,3.0,100,0.00,,,0.19,,2013-01-25 13:02:00,
2013-01-25 05:11:00,42.0,42.0,30.05,NW,304,2.0,3.0,100,0.00,,,0.19,,2013-01-25 13:11:00,
2013-01-25 05:21:00,42.0,42.0,30.05,WNW,303,2.0,3.0,100,0.00,,,0.19,,2013-01-25 13:21:00,
2013-01-25 05:31:00,42.0,42.0,30.05,NW,304,2.0,3.0,100,0.00,,,0.19,,2013-01-25 13:31:00,
2013-01-25 05:42:00,42.0,42.0,30.05,NW,304,2.0,3.0,100,0.00,,,0.19,,2013-01-25 13:42:00,
2013-01-25 05:52:00,42.0,42.0,30.05,WNW,303,2.0,3.0,100,0.00,,,0.19,,2013-01-25 13:52:00,
2013-01-25 06:02:00,42.0,42.0,30.06,WNW,303,2.0,4.0,100,0.00,,,0.19,,2013-01-25 14:02:00,
2013-01-25 06:11:00,42.0,42.0,30.06,WNW,303,2.0,4.0,100,0.00,,,0.19,,2013-01-25 14:11:00,
2013-01-25 06:22:00,42.0,42.0,30.06,WNW,303,2.0,4.0,100,0.00,,,0.19,,2013-01-25 14:22:00,
2013-01-25 06:32:00,43.0,43.0,30.06,WNW,303,2.0,2.0,100,0.00,,,0.19,,2013-01-25 14:32:00,
2013-01-25 06:41:00,43.0,43.0,30.06,WNW,303,2.0,2.0,100,0.00,,,0.19,,2013-01-25 14:41:00,
2013-01-25 06:53:00,43.0,43.0,30.06,WNW,303,2.0,3.0,100,0.00,,,0.19,,2013-01-25 14:53:00,
2013-01-25 07:02:00,43.0,43.0,30.06,WNW,303,1.0,2.0,100,0.00,,,0.19,,2013-01-25 15:02:00,
2013-01-25 07:11:00,43.0,43.0,30.06,WNW,303,1.0,2.0,100,0.00,,,0.19,,2013-01-25 15:11:00,
2013-01-25 07:21:00,43.0,43.0,30.06,WNW,303,1.0,2.0,100,0.00,,,0.19,,2013-01-25 15:21:00,
2013-01-25 07:31:00,42.0,42.0,30.06,WNW,303,1.0,2.0,100,0.00,,,0.19,,2013-01-25 15:31:00,
2013-01-25 07:41:00,42.0,42.0,30.06,WNW,303,1.0,2.0,100,0.00,,,0.19,,2013-01-25 15:41:00,
2013-01-25 07:52:00,42.0,42.0,30.06,WNW,303,2.0,3.0,100,0.00,,,0.19,,2013-01-25 15:52:00,
2013-01-25 08:01:00,42.0,42.0,30.06,WNW,303,1.0,2.0,100,0.00,,,0.19,,2013-01-25 16:01:00,
2013-01-25 08:11:00,42.0,42.0,30.06,WNW,303,1.0,2.0,100,0.00,,,0.19,,2013-01-25 16:11:00,
2013-01-25 08:21:00,42.0,42.0,30.06,WNW,303,1.0,2.0,100,0.00,,,0.19,,2013-01-25 16:21:00,
2013-01-25 08:32:00,42.0,42.0,30.06,WNW,303,1.0,2.0,100,0.00,,,0.19,,2013-01-25 16:32:00,
2013-01-25 08:42:00,42.0,42.0,30.06,WNW,303,1.0,2.0,100,0.00,,,0.19,,2013-01-25 16:42:00,
2013-01-25 08:52:00,42.0,42.0,30.06,WNW,303,1.0,2.0,100,0.00,,,0.19,,2013-01-25 16:52:00,
2013-01-25 09:01:00,42.0,42.0,30.06,WNW,303,1.0,2.0,100,0.00,,,0.19,,2013-01-25 17:01:00,
2013-01-25 09:11:00,42.0,42.0,30.06,WNW,303,1.0,2.0,100,0.00,,,0.19,,2013-01-25 17:11:00,
2013-01-25 09:21:00,42.0,42.0,30.06,WNW,303,0.0,1.0,100,0.00,,,0.19,,2013-01-25 17:21:00,
2013-01-25 09:32:00,42.0,42.0,30.06,WNW,301,0.0,1.0,100,0.00,,,0.19,,2013-01-25 17:32:00,
2013-01-25 09:42:00,42.0,42.0,30.06,WNW,301,0.0,1.0,100,0.00,,,0.19,,2013-01-25 17:42:00,
2013-01-25 09:52:00,43.0,43.0,30.06,NW,305,1.0,2.0,100,0.00,,,0.19,,2013-01-25 17:52:00,
2013-01-25 10:02:00,43.0,43.0,30.07,NW,304,2.0,4.0,100,0.00,,,0.19,,2013-01-25 18:02:00,
2013-01-25 10:11:00,43.0,43.0,30.07,NW,304,2.0,4.0,100,0.00,,,0.19,,2013-01-25 18:11:00,
2013-01-25 10:22:00,43.0,43.0,30.07,NW,305,0.0,0.0,100,0.00,,,0.19,,2013-01-25 18:22:00,
2013-01-25 10:32:00,43.0,43.0,30.06,WNW,302,1.0,1.0,100,0.00,,,0.19,,2013-01-25 18:32:00,
2013-01-25 10:42:00,43.0,43.0,30.06,WNW,302,1.0,1.0,100,0.00,,,0.19,,2013-01-25 18:42:00,
2013-01-25 10:52:00,43.0,43.0,30.06,WNW,302,1.0,1.0,100,0.00,,,0.19,,2013-01-25 18:52:00,
2013-01-25 11:01:00,44.0,44.0,30.06,NW,305,1.0,1.0,100,0.00,,,0.19,,2013-01-25 19:01:00,
2013-01-25 11:11:00,44.0,44.0,30.06,NW,305,1.0,1.0,100,0.00,,,0.19,,2013-01-25 19:11:00,
2013-01-25 11:21:00,44.0,44.0,30.06,WNW,303,2.0,2.0,100,0.00,,,0.19,,2013-01-25 19:21:00,
2013-01-25 11:32:00,43.0,43.0,30.06,WNW,303,1.0,2.0,100,0.00,,,0.19,,2013-01-25 19:32:00,
2013-01-25 11:41:00,43.0,43.0,30.06,WNW,303,1.0,2.0,100,0.00,,,0.19,,2013-01-25 19:41:00,
2013-01-25 11:52:00,43.0,43.0,30.06,WNW,301,2.0,4.0,100,0.00,,,0.19,,2013-01-25 19:52:00,
2013-01-25 12:01:00,43.0,43.0,30.05,NW,304,0.0,0.0,100,0.00,,,0.19,,2013-01-25 20:01:00,
2013-01-25 12:11:00,43.0,43.0,30.05,NW,304,0.0,0.0,100,0.00,,,0.19,,2013-01-25 20:11:00,
2013-01-25 12:21:00,44.0,44.0,30.04,WNW,303,0.0,1.0,100,0.00,,,0.19,,2013-01-25 20:21:00,
2013-01-25 12:31:00,44.0,44.0,30.03,NW,304,1.0,2.0,100,0.00,,,0.19,,2013-01-25 20:31:00,
2013-01-25 12:41:00,44.0,44.0,30.03,NW,304,1.0,2.0,100,0.00,,,0.19,,2013-01-25 20:41:00,
2013-01-25 12:52:00,44.0,44.0,30.03,North,9,0.0,0.0,100,0.00,,,0.19,,2013-01-25 20:52:00,
2013-01-25 13:01:00,44.0,44.0,30.03,WNW,302,1.0,1.0,100,0.00,,,0.19,,2013-01-25 21:01:00,
2013-01-25 13:11:00,44.0,44.0,30.03,WNW,302,1.0,1.0,100,0.00,,,0.19,,2013-01-25 21:11:00,
2013-01-25 13:22:00,44.0,44.0,30.02,WNW,300,1.0,2.0,100,0.00,,,0.19,,2013-01-25 21:22:00,
2013-01-25 13:32:00,44.0,44.0,30.02,NNW,334,1.0,3.0,100,0.00,,,0.19,,2013-01-25 21:32:00,
2013-01-25 13:42:00,44.0,44.0,30.02,NNW,334,1.0,3.0,100,0.00,,,0.19,,2013-01-25 21:42:00,
2013-01-25 13:51:00,44.0,44.0,30.01,NW,304,0.0,1.0,100,0.00,,,0.19,,2013-01-25 21:51:00,
2013-01-25 14:02:00,45.0,45.0,30.01,WNW,299,0.0,0.0,100,0.00,,,0.19,,2013-01-25 22:02:00,
2013-01-25 14:11:00,45.0,45.0,30.01,WNW,299,0.0,0.0,100,0.00,,,0.19,,2013-01-25 22:11:00,
2013-01-25 14:21:00,45.0,45.0,30.01,WNW,299,0.0,0.0,100,0.00,,,0.19,,2013-01-25 22:21:00,
2013-01-25 14:32:00,45.0,45.0,30.00,NW,306,0.0,0.0,100,0.00,,,0.19,,2013-01-25 22:32:00,
2013-01-25 14:41:00,45.0,45.0,30.00,NW,306,0.0,0.0,100,0.00,,,0.19,,2013-01-25 22:41:00,
2013-01-25 14:52:00,45.0,45.0,30.00,WNW,302,0.0,1.0,100,0.00,,,0.19,,2013-01-25 22:52:00,
2013-01-25 15:02:00,45.0,45.0,29.99,WNW,302,0.0,1.0,100,0.00,,,0.19,,2013-01-25 23:02:00,
2013-01-25 15:11:00,45.0,45.0,29.99,WNW,302,0.0,1.0,100,0.00,,,0.19,,2013-01-25 23:11:00,
2013-01-25 15:21:00,45.0,45.0,29.98,WNW,302,0.0,0.0,100,0.00,,,0.19,,2013-01-25 23:21:00,
2013-01-25 15:32:00,44.0,44.0,29.99,WNW,302,0.0,0.0,100,0.00,,,0.19,,2013-01-25 23:32:00,
2013-01-25 15:41:00,44.0,44.0,29.99,WNW,302,0.0,0.0,100,0.00,,,0.19,,2013-01-25 23:41:00,
2013-01-25 15:52:00,44.0,44.0,29.98,WNW,301,0.0,0.0,100,0.00,,,0.19,,2013-01-25 23:52:00,
2013-01-25 16:01:00,44.0,44.0,29.98,NW,304,0.0,1.0,100,0.00,,,0.19,,2013-01-26 00:01:00,
2013-01-25 16:11:00,44.0,44.0,29.98,NW,304,0.0,1.0,100,0.00,,,0.19,,2013-01-26 00:11:00,
2013-01-25 16:22:00,44.0,44.0,29.98,WNW,302,0.0,0.0,100,0.00,,,0.19,,2013-01-26 00:22:00,
2013-01-25 16:31:00,43.0,43.0,29.98,WNW,301,0.0,0.0,100,0.00,,,0.19,,2013-01-26 00:31:00,
2013-01-25 16:41:00,43.0,43.0,29.98,WNW,301,0.0,0.0,100,0.00,,,0.19,,2013-01-26 00:41:00,
2013-01-25 16:53:00,43.0,43.0,29.98,WNW,302,0.0,2.0,100,0.00,,,0.19,,2013-01-26 00:53:00,
2013-01-25 17:01:00,43.0,43.0,29.98,WNW,302,0.0,1.0,100,0.00,,,0.19,,2013-01-26 01:01:00,
2013-01-25 17:11:00,43.0,43.0,29.98,WNW,302,0.0,1.0,100,0.00,,,0.19,,2013-01-26 01:11:00,
2013-01-25 17:22:00,42.0,42.0,29.97,WNW,302,1.0,1.0,100,0.00,,,0.19,,2013-01-26 01:22:00,
2013-01-25 17:31:00,42.0,42.0,29.98,WNW,302,0.0,0.0,100,0.00,,,0.19,,2013-01-26 01:31:00,
2013-01-25 17:41:00,42.0,42.0,29.98,WNW,302,0.0,0.0,100,0.00,,,0.19,,2013-01-26 01:41:00,
2013-01-25 17:52:00,43.0,43.0,29.98,WNW,302,1.0,1.0,100,0.00,,,0.19,,2013-01-26 01:52:00,
2013-01-25 18:01:00,42.0,42.0,29.98,WNW,302,1.0,1.0,100,0.00,,,0.19,,2013-01-26 02:01:00,
2013-01-25 18:11:00,42.0,42.0,29.98,WNW,302,1.0,1.0,100,0.00,,,0.19,,2013-01-26 02:11:00,
2013-01-25 18:21:00,42.0,42.0,29.98,WNW,302,1.0,1.0,100,0.00,,,0.18,,2013-01-26 02:21:00,
2013-01-25 18:32:00,41.0,41.0,29.97,WNW,302,0.0,1.0,100,0.00,,,0.17,,2013-01-26 02:32:00,
2013-01-25 18:42:00,41.0,41.0,29.97,WNW,302,0.0,1.0,100,0.00,,,0.17,,2013-01-26 02:42:00,
2013-01-25 18:52:00,41.0,41.0,29.96,WNW,303,1.0,2.0,100,0.00,,,0.14,,2013-01-26 02:52:00,
2013-01-25 19:01:00,41.0,41.0,29.96,WNW,303,1.0,2.0,100,0.00,,,0.14,,2013-01-26 03:01:00,
2013-01-25 19:11:00,41.0,41.0,29.96,WNW,303,1.0,2.0,100,0.00,,,0.14,,2013-01-26 03:11:00,
2013-01-25 19:21:00,42.0,42.0,29.96,NW,304,2.0,2.0,100,0.00,,,0.13,,2013-01-26 03:21:00,
2013-01-25 19:31:00,41.0,41.0,29.96,WNW,303,1.0,2.0,100,0.00,,,0.12,,2013-01-26 03:31:00,
2013-01-25 19:42:00,41.0,41.0,29.96,WNW,303,1.0,2.0,100,0.00,,,0.12,,2013-01-26 03:42:00,
2013-01-25 19:52:00,40.0,40.0,29.96,WNW,303,2.0,3.0,100,0.00,,,0.14,,2013-01-26 03:52:00,
2013-01-25 20:01:00,40.0,40.0,29.95,NW,304,1.0,2.0,100,0.00,,,0.14,,2013-01-26 04:01:00,
2013-01-25 20:12:00,40.0,40.0,29.95,NW,304,1.0,2.0,100,0.00,,,0.14,,2013-01-26 04:12:00,
2013-01-25 20:21:00,40.0,40.0,29.95,NW,304,1.0,2.0,100,0.00,,,0.14,,2013-01-26 04:21:00,
2013-01-25 20:32:00,41.0,41.0,29.96,WNW,303,0.0,1.0,100,0.00,,,0.13,,2013-01-26 04:32:00,
2013-01-25 20:42:00,41.0,41.0,29.96,WNW,303,0.0,1.0,100,0.00,,,0.13,,2013-01-26 04:42:00,
2013-01-25 20:52:00,41.0,41.0,29.95,WNW,303,1.0,1.0,100,0.00,,,0.13,,2013-01-26 04:52:00,
2013-01-25 21:02:00,41.0,41.0,29.95,WNW,303,1.0,2.0,100,0.00,,,0.13,,2013-01-26 05:02:00,
2013-01-25 21:12:00,41.0,41.0,29.95,WNW,303,1.0,2.0,100,0.00,,,0.13,,2013-01-26 05:12:00,
2013-01-25 21:22:00,41.0,41.0,29.95,WNW,303,1.0,1.0,100,0.00,,,0.13,,2013-01-26 05:22:00,
2013-01-25 21:32:00,40.0,40.0,29.94,WNW,302,1.0,2.0,100,0.00,,,0.13,,2013-01-26 05:32:00,
2013-01-25 21:41:00,40.0,40.0,29.94,WNW,302,1.0,2.0,100,0.00,,,0.13,,2013-01-26 05:41:00,
2013-01-25 21:52:00,40.0,40.0,29.94,WNW,302,1.0,2.0,100,0.00,,,0.13,,2013-01-26 05:52:00,
2013-01-25 22:02:00,40.0,40.0,29.95,NW,304,1.0,1.0,100,0.00,,,0.13,,2013-01-26 06:02:00,
2013-01-25 22:11:00,40.0,40.0,29.95,NW,304,1.0,1.0,100,0.00,,,0.13,,2013-01-26 06:11:00,
2013-01-25 22:21:00,40.0,40.0,29.95,NW,304,1.0,2.0,100,0.00,,,0.13,,2013-01-26 06:21:00,
2013-01-25 22:31:00,40.0,40.0,29.94,WNW,303,1.0,2.0,100,0.00,,,0.13,,2013-01-26 06:31:00,
2013-01-25 22:41:00,40.0,40.0,29.94,WNW,303,1.0,2.0,100,0.00,,,0.13,,2013-01-26 06:41:00,
2013-01-25 22:52:00,40.0,40.0,29.94,WNW,303,1.0,2.0,100,0.00,,,0.13,,2013-01-26 06:52:00,
2013-01-25 23:01:00,40.0,40.0,29.94,NW,304,1.0,2.0,100,0.00,,,0.13,,2013-01-26 07:01:00,
2013-01-25 23:11:00,40.0,40.0,29.94,NW,304,1.0,2.0,100,0.00,,,0.13,,2013-01-26 07:11:00,
2013-01-25 23:21:00,40.0,40.0,29.94,NW,304,1.0,2.0,100,0.00,,,0.13,,2013-01-26 07:21:00,
2013-01-25 23:33:00,40.0,40.0,29.94,WNW,303,1.0,2.0,100,0.00,,,0.13,,2013-01-26 07:33:00,
2013-01-25 23:41:00,40.0,40.0,29.94,WNW,303,1.0,2.0,100,0.00,,,0.13,,2013-01-26 07:41:00,
2013-01-25 23:51:00,40.0,40.0,29.94,WNW,303,1.0,1.0,100,0.00,,,0.13,,2013-01-26 07:51:00,